Regional Weather Roundup
Issued by NWS

Home | Current Version | Previous Version | Text Only | Print | Product List | Glossary Off
Versions: 1 2 3 4 5 6 7 8 9 10 11 12 13 14 15 16 17 18 19 20 21 22 23 24 25 26 27

000
ASUS45 KCYS 230210
RWRWY

WYOMING REGIONAL WEATHER ROUNDUP
NATIONAL WEATHER SERVICE CHEYENNE WY
800 PM MDT TUE APR 22 2014

NOTE:  "FAIR" INDICATES FEW OR NO CLOUDS BELOW 12,000 FEET
WITH NO SIGNIFICANT WEATHER AND/OR OBSTRUCTIONS TO VISIBILITY.

WYZ001-230300-
YELLOWSTONE NATIONAL PARK

CITY           SKY/WX    TMP DP  RH WIND       PRES   REMARKS
LK YELLOWSTONE   N/A     38  33  82 VRB3      29.66R
W YELLOWSTONE  NOT AVBL

$$
WYZ002>013-054>058-071-098>099-230300-
NORTHERN WYOMING

CITY           SKY/WX    TMP DP  RH WIND       PRES   REMARKS
JACKSON        CLOUDY    43  39  87 S9        29.62R
CODY           CLOUDY    64  32  29 SE14      29.42F
GREYBULL       CLOUDY    68  37  32 SE13G22   29.40F
WORLAND        MOCLDY    63  41  44 SE14      29.43F
SHERIDAN         N/A     55  23  28 SW18G25     N/A
BUFFALO        CLOUDY    60  38  43 SE15      29.54F
GILLETTE       CLOUDY    56  45  66 S9        29.57F
HULETT         FAIR      61  45  55 SE16      29.59
NEWCASTLE      FAIR      63  36  36 E14G21    29.60

$$
WYZ014>020-022>026-101>103-230300-
CENTRAL WYOMING

CITY           SKY/WX    TMP DP  RH WIND       PRES   REMARKS
BIG PINEY      CLOUDY    54  28  36 W31G49    29.63R
PINEDALE       LGT RAIN  55  28  35 S13G21    29.61R
DUBOIS         CLOUDY    54  23  30 S21G38    29.57S
LANDER         CLOUDY    57  34  41 S14       29.50F
RIVERTON       MOCLDY    62  30  29 SW23G29   29.52F
CASPER         CLOUDY    63  34  33 S13       29.57F
DOUGLAS        CLOUDY    57  44  62 SE10      29.63F

$$
WYZ021-027>030-104>119-230300-
SOUTHERN WYOMING

CITY           SKY/WX    TMP DP  RH WIND       PRES   REMARKS
EVANSTON       CLOUDY    45  35  68 W21       29.69R
KEMMERER       LGT RAIN  43  37  81 SW23G36   29.69S
FORT BRIDGER   LGT RAIN  51  38  61 SW21G35   29.68F
ROCK SPRINGS   CLOUDY    59  23  25 S17       29.62F
DIXON          FAIR      60  28  30 S8        29.73F
RAWLINS        CLOUDY    59  22  24 S13G21    29.69F
SARATOGA       FAIR      55  25  30 S13       29.74S
LARAMIE        CLOUDY    52  31  44 S10       29.78F
CHEYENNE       CLOUDY    62  35  36 S8        29.74F
TORRINGTON     CLOUDY    64  44  48 SE7       29.63F
PINE BLUFFS    FAIR      61  36  39 NE3       29.70F

$$



USA.gov is the U.S. government's official web portal to all federal, state and local government web resources and services.